Tiempo cada hora Czyzykow

Hoy, 4 Agosto, Miércoles

Tiempo Temperatura Precipitaciones Viento Presión Humedad
00:00 +16°C° 0.3 mm 2 mps 741 mmHg 84%
01:00 +15°C° 0.3 mm 2 mps 740 mmHg 87%
02:00 +15°C° 0.1 mm 2 mps 740 mmHg 88%
03:00 +15°C° 0.1 mm 2 mps 740 mmHg 89%
04:00 +15°C° 0.1 mm 2 mps 740 mmHg 89%
05:00 +15°C° 0.2 mm 2 mps 740 mmHg 88%
06:00 +16°C° 0.2 mm 2 mps 740 mmHg 86%
07:00 +16°C° 0.2 mm 2 mps 741 mmHg 84%
08:00 +16°C° 0.6 mm 2 mps 741 mmHg 86%
09:00 +16°C° 0.6 mm 2 mps 741 mmHg 88%
10:00 +16°C° 0.6 mm 2 mps 741 mmHg 90%
11:00 +16°C° 0.7 mm 2 mps 741 mmHg 90%
12:00 +16°C° 0.7 mm 2 mps 741 mmHg 90%
13:00 +16°C° 0.7 mm 2 mps 741 mmHg 91%
14:00 +17°C° 0.1 mm 2 mps 741 mmHg 83%
15:00 +18°C° 0.1 mm 2 mps 741 mmHg 75%
16:00 +20°C° 0.1 mm 2 mps 740 mmHg 68%
17:00 +19°C° 0 mm 2 mps 740 mmHg 71%
18:00 +18°C° 0 mm 2 mps 740 mmHg 74%
19:00 +17°C° 0 mm 2 mps 740 mmHg 77%
20:00 +18°C° 0 mm 1 mps 740 mmHg 80%
21:00 +16°C° 0 mm 1 mps 740 mmHg 84%
22:00 +15°C° 0 mm 1 mps 740 mmHg 87%
23:00 +15°C° 0 mm 1 mps 740 mmHg 88%

Mañana, 5 Agosto, Jueves

Tiempo Temperatura Precipitaciones Viento Presión Humedad
00:00 +14°C° 0 mm 1 mps 740 mmHg 89%
01:00 +14°C° 0 mm 1 mps 740 mmHg 91%
02:00 +14°C° 0 mm 2 mps 740 mmHg 91%
03:00 +14°C° 0 mm 2 mps 740 mmHg 92%
04:00 +13°C° 0 mm 2 mps 739 mmHg 93%
05:00 +14°C° 0 mm 2 mps 739 mmHg 90%
06:00 +15°C° 0 mm 2 mps 739 mmHg 86%
07:00 +16°C° 0 mm 3 mps 739 mmHg 83%
08:00 +18°C° 0 mm 3 mps 739 mmHg 77%
09:00 +19°C° 0 mm 3 mps 739 mmHg 71%
10:00 +20°C° 0 mm 3 mps 739 mmHg 65%
11:00 +20°C° 0 mm 4 mps 739 mmHg 63%
12:00 +21°C° 0 mm 4 mps 738 mmHg 61%
13:00 +21°C° 0 mm 4 mps 738 mmHg 59%
14:00 +20°C° 0.3 mm 3 mps 738 mmHg 68%
15:00 +19°C° 0.3 mm 3 mps 738 mmHg 76%
16:00 +17°C° 0.3 mm 2 mps 738 mmHg 85%
17:00 +17°C° 0.4 mm 2 mps 737 mmHg 87%
18:00 +17°C° 0.4 mm 2 mps 737 mmHg 90%
19:00 +16°C° 0.4 mm 2 mps 737 mmHg 93%
20:00 +16°C° 0.3 mm 3 mps 736 mmHg 93%
21:00 +16°C° 0.3 mm 3 mps 736 mmHg 94%
22:00 +16°C° 0.3 mm 3 mps 735 mmHg 94%
23:00 +16°C° 0.6 mm 3 mps 735 mmHg 94%

Pasado mañana, 6 Agosto, Viernes

Tiempo Temperatura Precipitaciones Viento Presión Humedad
00:00 +15°C° 0.6 mm 4 mps 735 mmHg 95%
01:00 +15°C° 0.6 mm 4 mps 735 mmHg 95%
02:00 +14°C° 2 mm 4 mps 734 mmHg 95%
03:00 +14°C° 2 mm 4 mps 734 mmHg 96%
04:00 +14°C° 2 mm 4 mps 734 mmHg 97%
05:00 +14°C° 0.9 mm 4 mps 734 mmHg 96%
06:00 +14°C° 0.9 mm 4 mps 734 mmHg 96%
07:00 +14°C° 0.9 mm 4 mps 734 mmHg 96%
08:00 +14°C° 0.1 mm 4 mps 734 mmHg 94%
09:00 +14°C° 0.1 mm 4 mps 734 mmHg 93%
10:00 +14°C° 0.1 mm 4 mps 735 mmHg 92%
11:00 +14°C° 0.1 mm 4 mps 735 mmHg 91%
12:00 +14°C° 0.1 mm 4 mps 735 mmHg 91%
13:00 +13°C° 0.1 mm 4 mps 735 mmHg 91%
14:00 +14°C° 0.1 mm 4 mps 736 mmHg 90%
15:00 +14°C° 0.1 mm 3 mps 736 mmHg 89%
16:00 +14°C° 0.1 mm 3 mps 736 mmHg 88%
17:00 +14°C° 0 mm 3 mps 736 mmHg 89%
18:00 +14°C° 0 mm 3 mps 736 mmHg 89%
19:00 +14°C° 0 mm 2 mps 736 mmHg 90%
20:00 +14°C° 0 mm 2 mps 737 mmHg 91%
21:00 +14°C° 0 mm 2 mps 737 mmHg 93%
22:00 +13°C° 0 mm 2 mps 737 mmHg 94%
23:00 +13°C° 0 mm 2 mps 737 mmHg 94%

7 Agosto, Sábado

Tiempo Temperatura Precipitaciones Viento Presión Humedad
00:00 +13°C° 0 mm 2 mps 737 mmHg 94%
01:00 +12°C° 0 mm 2 mps 737 mmHg 94%
02:00 +12°C° 0 mm 2 mps 737 mmHg 93%
03:00 +12°C° 0 mm 2 mps 737 mmHg 92%
04:00 +12°C° 0 mm 2 mps 738 mmHg 91%
05:00 +13°C° 0 mm 2 mps 738 mmHg 85%
06:00 +15°C° 0 mm 2 mps 738 mmHg 79%
07:00 +16°C° 0 mm 2 mps 738 mmHg 73%
08:00 +18°C° 0 mm 2 mps 738 mmHg 67%
09:00 +20°C° 0 mm 2 mps 738 mmHg 60%
10:00 +23°C° 0 mm 2 mps 738 mmHg 54%
11:00 +24°C° 0 mm 2 mps 738 mmHg 52%
12:00 +25°C° 0 mm 3 mps 738 mmHg 50%
13:00 +26°C° 0 mm 3 mps 738 mmHg 49%
14:00 +26°C° 0 mm 3 mps 738 mmHg 49%
15:00 +26°C° 0 mm 2 mps 738 mmHg 48%
16:00 +27°C° 0 mm 2 mps 738 mmHg 48%
17:00 +25°C° 0 mm 2 mps 738 mmHg 52%
18:00 +24°C° 0 mm 1 mps 738 mmHg 57%
19:00 +23°C° 0 mm 1 mps 738 mmHg 61%
20:00 +23°C° 0 mm 2 mps 738 mmHg 63%
21:00 +21°C° 0 mm 2 mps 738 mmHg 64%
22:00 +20°C° 0 mm 3 mps 738 mmHg 66%
23:00 +20°C° 0 mm 3 mps 738 mmHg 68%

8 Agosto, Domingo

Tiempo Temperatura Precipitaciones Viento Presión Humedad
00:00 +19°C° 0 mm 3 mps 738 mmHg 71%
01:00 +19°C° 0 mm 4 mps 737 mmHg 74%
02:00 +19°C° 0 mm 4 mps 737 mmHg 72%
03:00 +19°C° 0 mm 4 mps 737 mmHg 71%
04:00 +20°C° 0 mm 4 mps 737 mmHg 69%
05:00 +20°C° 0 mm 4 mps 737 mmHg 71%
06:00 +20°C° 0 mm 4 mps 738 mmHg 72%
07:00 +20°C° 0 mm 4 mps 738 mmHg 74%
08:00 +20°C° 0 mm 4 mps 739 mmHg 74%
09:00 +21°C° 0 mm 5 mps 739 mmHg 73%
10:00 +21°C° 0 mm 5 mps 740 mmHg 73%
11:00 +22°C° 0 mm 5 mps 740 mmHg 68%
12:00 +23°C° 0 mm 5 mps 741 mmHg 62%
13:00 +25°C° 0 mm 5 mps 741 mmHg 56%
14:00 +25°C° 0 mm 4 mps 741 mmHg 54%
15:00 +26°C° 0 mm 4 mps 742 mmHg 52%
16:00 +26°C° 0 mm 3 mps 742 mmHg 49%
17:00 +25°C° 0 mm 3 mps 742 mmHg 54%
18:00 +24°C° 0 mm 2 mps 742 mmHg 58%
19:00 +23°C° 0 mm 1 mps 743 mmHg 62%
20:00 +22°C° 0 mm 1 mps 743 mmHg 62%
21:00 +22°C° 0 mm 1 mps 743 mmHg 61%
22:00 +21°C° 0 mm 1 mps 744 mmHg 61%
23:00 +21°C° 0 mm 1 mps 744 mmHg 61%

9 Agosto, Lunes

Tiempo Temperatura Precipitaciones Viento Presión Humedad
00:00 +20°C° 0 mm 2 mps 744 mmHg 62%
01:00 +19°C° 0 mm 2 mps 744 mmHg 62%
02:00 +19°C° 0 mm 2 mps 744 mmHg 64%
03:00 +18°C° 0 mm 2 mps 744 mmHg 66%
04:00 +18°C° 0 mm 2 mps 744 mmHg 68%
05:00 +19°C° 0 mm 2 mps 745 mmHg 66%
06:00 +20°C° 0 mm 2 mps 745 mmHg 64%
07:00 +21°C° 0 mm 2 mps 745 mmHg 63%
08:00 +23°C° 0 mm 2 mps 745 mmHg 58%
09:00 +24°C° 0 mm 2 mps 745 mmHg 54%
10:00 +26°C° 0 mm 2 mps 745 mmHg 49%
11:00 +26°C° 0 mm 2 mps 745 mmHg 47%
12:00 +27°C° 0 mm 2 mps 745 mmHg 45%
13:00 +27°C° 0 mm 2 mps 745 mmHg 43%
14:00 +27°C° 0 mm 2 mps 745 mmHg 44%
15:00 +27°C° 0 mm 2 mps 744 mmHg 45%
16:00 +27°C° 0 mm 2 mps 744 mmHg 46%
17:00 +26°C° 0 mm 1 mps 744 mmHg 50%
18:00 +24°C° 0 mm 1 mps 744 mmHg 55%
19:00 +23°C° 0 mm 1 mps 744 mmHg 60%
20:00 +22°C° 0.1 mm 1 mps 744 mmHg 63%
21:00 +20°C° 0.1 mm 2 mps 744 mmHg 67%
22:00 +20°C° 0.1 mm 2 mps 744 mmHg 70%
23:00 +19°C° 0.1 mm 2 mps 744 mmHg 74%
Mostrar más

Necesitamos Su Consentimiento

Meteoprog y nuestros Proveedores de Servicios pueden almacenar y acceder a sus datos personales como cookies, identificadores de dispositivo u otras tecnologías similares de su dispositivo y procesar dichos datos para personalizar contenido y anuncios, además de ofrecer funciones de redes sociales y analizar el tráfico.

  • Almacenar y/o acceder a información en su dispositivo

    Se puede almacenar o acceder a cookies, identificadores de dispositivo u otra información de su dispositivo para los fines anteriormente indicados.

  • Anuncios y contenido personalizados, medición de anuncios y contenido, percepciones del público, y desarrollo de productos

    Los anuncios y el contenido pueden personalizarse en base a su perfil. Se pueden añadir más datos para personalizar mejor los anuncios y contenidos. Se puede medir el rendimiento de los anuncios y contenidos. Se puede obtener la percepción sobre el público que ha visto los anuncios y contenidos. Dichos datos pueden usarse para desarrollar o mejorar la experiencia del usuario, sistemas y software.

Al hacer clic en ‘Estoy De Acuerdo’ usted permitirá el uso de las cookies, identificadores de dispositivo, balizas web u otras tecnologías similares indicadas. Su configuración puede cambiarse desde el navegador de su dispositivo.

Para ciertos fines, los intereses legítimos pueden ser considerados por encima del consentimiento. Puede leer más sobre ello en nuestra Política de Privacidad y Cookies.